Weather History for College Park, MD

Change the Weather History Date:

Saturday, February 2, 2013

  Actual Average Record
Temperature  
Mean Temperature 26 °F -  
Max Temperature 33 °F 45 °F 71 °F (1988)
Min Temperature 20 °F 28 °F -1 °F (1961)
Degree Days  
Heating Degree Days 38    
Moisture  
Dew Point 15 °F    
Average Humidity 63    
Maximum Humidity 96    
Minimum Humidity 41    
Precipitation  
Precipitation 0.00 in - - ()
Sea Level Pressure  
Sea Level Pressure 30.24 in    
Wind  
Wind Speed 4 mph (SW)    
Max Wind Speed 9 mph    
Max Gust Speed 16 mph    
Visibility 9 miles    
Events      
Averages and records for this station are not official NWS values.
T = Trace of Precipitation, MM = Missing Value Source: NWS Daily Summary

Daily Weather History Graph

Daily Weather History Graph

Search for Another Location

Airport:

Trip Planner

Search our weather history database for the weather conditions in past years. The results will help you decide how hot, cold, wet, or windy it might be!

Date:

Astronomy

Feb. 02, 2013 Rise Set
Actual Time 7:12 AM EST 5:30 PM EST
Civil Twilight 6:44 AM EST 5:58 PM EST
Nautical Twilight 6:13 AM EST 6:30 PM EST
Astronomical Twilight 5:41 AM EST 7:01 PM EST
Moon No Moon Rise 10:26 AM EST (2/2)
Length of Visible Light 11h 13m
Length of Day
10h 17m
Waning Gibbous, 60% of the Moon is Illuminated
Feb 2
Waning Gibbous
Feb 3
Last Quarter
Feb 10
New
Feb 17
First Quarter
Feb 25
Full

Hourly Weather History & Observations

Time (EST) Temp. Windchill Dew Point Humidity Pressure Visibility Wind Dir Wind Speed Gust Speed Precip Events Conditions
12:00 AM 22.5 °F 15.1 °F 6.6 °F 51% 30.40 in 10.0 mi West 5.8 mph - N/A   Clear
12:25 AM 22.3 °F 13.9 °F 6.6 °F 51% 30.40 in 10.0 mi West 6.9 mph - N/A   Clear
12:45 AM 22.1 °F 15.9 °F 7.0 °F 52% 30.40 in 10.0 mi West 4.6 mph - N/A   Clear
1:05 AM 21.7 °F 17.0 °F 7.2 °F 54% 30.40 in 10.0 mi WSW 3.5 mph - N/A   Clear
1:30 AM 21.7 °F 17.0 °F 6.6 °F 52% 30.40 in 10.0 mi WNW 3.5 mph - N/A   Clear
1:50 AM 21.6 °F 13.0 °F 6.3 °F 52% 30.40 in 10.0 mi WNW 6.9 mph - N/A   Clear
3:15 AM 21.2 °F 14.9 °F 6.4 °F 53% 30.38 in 10.0 mi WNW 4.6 mph - N/A   Clear
3:35 AM 21.0 °F 16.2 °F 6.8 °F 54% 30.38 in 10.0 mi West 3.5 mph - N/A   Clear
3:55 AM 21.0 °F 16.2 °F 7.0 °F 55% 30.38 in 10.0 mi West 3.5 mph - N/A   Clear
4:20 AM 20.8 °F - 7.0 °F 55% 30.37 in 10.0 mi Calm Calm - N/A   Clear
4:40 AM 20.7 °F 15.8 °F 7.2 °F 56% 30.37 in 10.0 mi West 3.5 mph - N/A   Clear
5:00 AM 20.7 °F - 7.5 °F 57% 30.37 in 10.0 mi Calm Calm - N/A   Clear
5:25 AM 21.0 °F 16.2 °F 7.7 °F 56% 30.37 in 10.0 mi WSW 3.5 mph - N/A   Clear
5:45 AM 21.0 °F - 7.2 °F 55% 30.37 in 10.0 mi Calm Calm - N/A   Clear
6:05 AM 20.8 °F - 7.5 °F 56% 30.37 in 10.0 mi Calm Calm - N/A   Clear
6:50 AM 20.8 °F - 8.2 °F 58% 30.36 in 10.0 mi Calm Calm - N/A   Clear
7:10 AM 21.0 °F - 7.9 °F 57% 30.37 in 10.0 mi Calm Calm - N/A   Clear
7:30 AM 21.2 °F - 8.2 °F 57% 30.37 in 10.0 mi Calm Calm - N/A   Clear
7:50 AM 21.0 °F - 8.6 °F 59% 30.38 in 10.0 mi Calm Calm - N/A   Clear
8:15 AM 22.3 °F - 8.6 °F 56% 30.37 in 10.0 mi Calm Calm - N/A   Clear
8:35 AM 23.9 °F 19.5 °F 8.1 °F 51% 30.36 in 10.0 mi SW 3.5 mph - N/A   Clear
8:55 AM 25.2 °F 19.5 °F 9.0 °F 50% 30.35 in 10.0 mi SSE 4.6 mph - N/A   Clear
9:15 AM 25.5 °F - 8.4 °F 48% 30.35 in 10.0 mi Calm Calm - N/A   Scattered Clouds
9:40 AM 27.1 °F 20.7 °F 7.5 °F 44% 30.35 in 10.0 mi South 5.8 mph - N/A   Mostly Cloudy
10:00 AM 27.3 °F 22.0 °F 6.4 °F 41% 30.34 in 10.0 mi SSW 4.6 mph - N/A   Scattered Clouds
10:20 AM 27.9 °F 24.0 °F 7.2 °F 42% 30.34 in 10.0 mi SSW 3.5 mph - N/A   Scattered Clouds
10:40 AM 28.8 °F 23.7 °F 8.8 °F 43% 30.33 in 10.0 mi South 4.6 mph - N/A   Mostly Cloudy
11:05 AM 29.5 °F 23.4 °F 9.0 °F 42% 30.32 in 10.0 mi WSW 5.8 mph - N/A   Overcast
11:25 AM 30.2 °F 26.7 °F 10.6 °F 44% 30.31 in 10.0 mi SW 3.5 mph - N/A   Overcast
11:45 AM 30.6 °F 25.8 °F 10.2 °F 43% 30.29 in 10.0 mi South 4.6 mph - N/A   Overcast
12:05 PM 31.1 °F 26.4 °F 9.5 °F 41% 30.27 in 10.0 mi SSW 4.6 mph - N/A   Overcast
12:30 PM 31.1 °F 24.5 °F 9.7 °F 41% 30.25 in 10.0 mi SSW 6.9 mph - N/A   Overcast
12:50 PM 31.1 °F 23.7 °F 9.7 °F 41% 30.24 in 10.0 mi SW 8.1 mph - N/A   Overcast
1:10 PM 31.1 °F 23.1 °F 12.2 °F 46% 30.23 in 10.0 mi SW 9.2 mph - N/A   Overcast
1:30 PM 30.7 °F 24.1 °F 14.0 °F 50% 30.22 in 10.0 mi SSW 6.9 mph - N/A   Overcast
1:55 PM 30.4 °F 23.6 °F 16.9 °F 57% 30.21 in 10.0 mi SSW 6.9 mph - N/A   Overcast
2:15 PM 30.2 °F 24.3 °F 18.1 °F 61% 30.20 in 10.0 mi South 5.8 mph - N/A   Overcast
2:35 PM 30.0 °F 26.5 °F 19.2 °F 64% 30.19 in 10.0 mi SSW 3.5 mph - N/A   Overcast
2:55 PM 30.0 °F - 18.7 °F 63% 30.18 in 10.0 mi Calm Calm - N/A   Overcast
3:20 PM 30.6 °F - 18.0 °F 60% 30.17 in 10.0 mi Calm Calm - N/A   Overcast
3:40 PM 31.3 °F - 16.0 °F 53% 30.15 in 10.0 mi Calm Calm - N/A   Overcast
4:00 PM 32.0 °F - 15.1 °F 50% 30.15 in 10.0 mi Calm Calm - N/A   Overcast
4:20 PM 32.4 °F 29.1 °F 13.8 °F 46% 30.14 in 10.0 mi SSW 3.5 mph - N/A   Overcast
4:45 PM 33.1 °F 28.7 °F 12.9 °F 43% 30.13 in 10.0 mi SSW 4.6 mph - N/A   Overcast
5:05 PM 32.9 °F 25.3 °F 18.0 °F 54% 30.10 in 10.0 mi South 9.2 mph 16.1 mph N/A   Overcast
5:25 PM 32.9 °F 25.3 °F 18.7 °F 56% 30.10 in 10.0 mi SSW 9.2 mph - N/A   Overcast
5:45 PM 31.1 °F 24.5 °F 25.2 °F 79% 30.11 in 2.5 mi SSW 6.9 mph - N/A   Overcast
6:10 PM 29.3 °F 24.3 °F 27.7 °F 94% 30.11 in 1.0 mi South 4.6 mph - N/A   Overcast
6:30 PM 29.3 °F - 28.4 °F 96% 30.11 in 1.8 mi Calm Calm - N/A   Overcast
6:50 PM 29.7 °F 26.1 °F 28.8 °F 96% 30.10 in 2.5 mi South 3.5 mph - N/A   Overcast
7:15 PM 30.0 °F 26.5 °F 28.8 °F 95% 30.10 in 2.5 mi South 3.5 mph - N/A   Overcast
7:35 PM 30.2 °F 25.4 °F 28.8 °F 94% 30.11 in 2.5 mi South 4.6 mph - N/A   Overcast
7:55 PM 30.2 °F 25.4 °F 28.9 °F 95% 30.10 in 2.0 mi South 4.6 mph - N/A   Overcast
8:15 PM 30.4 °F - 29.3 °F 96% 30.09 in 2.5 mi Calm Calm - N/A   Overcast
8:40 PM 30.9 °F 25.2 °F 29.3 °F 94% 30.08 in 5.0 mi SSE 5.8 mph - N/A   Overcast
9:00 PM 30.9 °F 25.2 °F 29.3 °F 94% 30.07 in 4.0 mi SSE 5.8 mph - N/A   Overcast
9:20 PM 31.1 °F - 29.5 °F 94% 30.06 in 7.0 mi Calm Calm - N/A   Overcast
10:05 PM 31.5 °F - 29.8 °F 94% 30.05 in 10.0 mi Calm Calm - N/A   Overcast
10:25 PM 31.1 °F - 29.7 °F 94% 30.04 in 10.0 mi Calm Calm - N/A   Overcast
10:45 PM 31.5 °F - 29.8 °F 94% 30.04 in 10.0 mi Calm Calm - N/A   Overcast
11:05 PM 31.5 °F - 30.0 °F 94% 30.04 in 10.0 mi Calm Calm - N/A   Mostly Cloudy
11:30 PM 31.1 °F - 29.8 °F 95% 30.04 in 10.0 mi Calm Calm - N/A   Overcast
11:50 PM 31.8 °F - 30.0 °F 93% 30.03 in 10.0 mi Calm Calm - N/A   Overcast